Hourly Data Report for September 04, 2016

SHEARWATER RCS
NOVA SCOTIA

44°37'47.000" N
63°30'48.000" W
24.00 m
8205092
71264
AAW

Download Data

Hourly Data (September 2016)
Hourly Data Report for September 4, 2016
TIME Temp Definition
°C
Dew Point Definition
°C
Rel Hum Definition
%
Wind Dir Definition
10's deg

Wind Spd Definition
km/h
Visibility Definition
km
Stn Press Definition
kPa
Hmdx Definition


Wind Chill Definition


Weather Definition


00:00 13.5 9.0 75 2 5   102.13     LegendNANA
01:00 11.3 8.3 82   0   102.16     LegendNANA
02:00 10.0 7.9 87 1 3   102.19     LegendNANA
03:00 10.6 8.2 85   0   102.24     LegendNANA
04:00 9.9 7.5 85   0   102.26     LegendNANA
05:00 9.4 7.7 89   0   102.31     LegendNANA
06:00 8.9 7.3 90 2 3   102.33     LegendNANA
07:00 13.5 9.3 76 4 6   102.41     LegendNANA
08:00 15.8 8.8 63 5 9   102.45     LegendNANA
09:00 17.8 6.9 49 7 7   102.50     LegendNANA
10:00 19.0 4.4 38 10 7   102.51     LegendNANA
11:00 19.1 2.6 33 13 14   102.50     LegendNANA
12:00 19.0 7.9 48 16 16   102.48     LegendNANA
13:00 19.1 7.3 46 17 16   102.47     LegendNANA
14:00 18.4 9.6 57 16 19   102.49     LegendNANA
15:00 18.6 6.2 45 13 20   102.43     LegendNANA
16:00 18.1 10.1 59 16 12   102.45     LegendNANA
17:00 17.6 9.8 60 17 11   102.44     LegendNANA
18:00 16.3 9.8 66 17 9   102.46     LegendNANA
19:00 14.7 10.2 74 16 6   102.46     LegendNANA
20:00 13.3 9.9 80 0 1   102.52     LegendNANA
21:00 12.3 9.7 84   0   102.54     LegendNANA
22:00 12.0 9.9 87   0   102.53     LegendNANA
23:00 11.8 9.9 88 10 3   102.54     LegendNANA

Notes on Data Quality.

Legend

  • E = Estimated
  • M = Missing
  • NA = Not Available*
  • [empty] = Indicates an unobserved value
Date modified: